Regional Weather Roundup
Issued by NWS

Home | Current Version | Previous Version | Text Only | Print | Product List | Glossary On
Versions: 1 2 3 4 5 6 7 8 9 10 11 12 13 14 15 16 17 18 19 20 21 22 23 24 25 26 27 28 29 30 31 32 33 34 35 36 37 38 39 40 41 42 43 44 45 46 47 48 49 50
000
ASUS43 KOAX 270302
RWRNE

WEATHER ROUNDUP FOR NEBRASKA
NATIONAL WEATHER SERVICE OMAHA NE
900 PM CST MON JAN 26 2015

NOTES: SATELLITE DATA IS BEING USED TO AUGMENT CLOUD COVER ABOVE
       12000 FEET.
       "FAIR" INDICATES FEW OR NO CLOUDS BELOW 12,000 FEET WITH NO
       SIGNIFICANT WEATHER AND/OR OBSTRUCTIONS TO VISIBILITY.

  * THESE STATIONS DO NOT REPORT WEATHER SUCH AS RAIN...SNOW OR FOG.

NEZ001>004-019>022-054>056-270400-
NEBRASKA PANHANDLE

CITY           SKY/WX    TMP DP  RH WIND       PRES   REMARKS
SCOTTSBLUFF    CLEAR     43  31  62 NW9       30.12R
ALLIANCE       CLEAR     34  29  82 W9        30.08F WCI  27
CHADRON        CLEAR     37  30  75 SW9       30.05S WCI  30
SIDNEY         CLEAR     38  28  67 W12       30.15R WCI  30
$$

NEZ057>060-069>072-079>082-270400-
SOUTHWEST NEBRASKA

CITY           SKY/WX    TMP DP  RH WIND       PRES   REMARKS
NORTH PLATTE   CLEAR     30  26  85 CALM      30.08R
IMPERIAL       CLEAR     45  28  51 W9        30.11S
MCCOOK         CLEAR     47  29  49 W5        30.09R
$$

NEZ005>010-023>029-035>040-094-270400-
NORTH CENTRAL NEBRASKA

CITY           SKY/WX    TMP DP  RH WIND       PRES   REMARKS
VALENTINE      CLEAR     35  29  78 W6        30.02S WCI  30
BROKEN BOW     CLEAR     33  27  78 CALM      30.04S
ORD            CLEAR     32  27  81 SW6       30.03S WCI  26
$$

NEZ041-046>049-061>064-073>077-083>087-270400-
SOUTH CENTRAL NEBRASKA

CITY           SKY/WX    TMP DP  RH WIND       PRES   REMARKS
GRAND ISLAND   CLEAR     35  28  75 CALM      30.05R
HASTINGS       CLEAR     38  27  64 CALM      30.04S
KEARNEY *      PTCLDY    39  28  65 W3        30.06R
$$

NEZ011>018-030>034-042>045-270400-
NORTHEAST NEBRASKA

CITY           SKY/WX    TMP DP  RH WIND       PRES   REMARKS
NORFOLK        CLEAR     40  31  70 W5        30.02R
COLUMBUS *     CLEAR     30  23  74 W6        30.05R WCI  24
TEKAMAH        CLEAR     37  31  78 NW6       30.01R WCI  32
$$

NEZ050>053-065>068-078-088>093-270400-
SOUTHEAST NEBRASKA

CITY           SKY/WX    TMP DP  RH WIND       PRES   REMARKS
LINCOLN        CLEAR     38  28  67 CALM      30.04S
OMAHA EPPLEY   PTCLDY    42  33  70 NE6       30.01R
FALLS CITY     PTCLDY    39  29  67 NW9       30.01R WCI  33
$$

NEZ044-045-051>053-067-270400-
OMAHA AREA

CITY           SKY/WX    TMP DP  RH WIND       PRES   REMARKS
OMAHA EPPLEY   PTCLDY    42  33  70 NE6       30.01R
OFFUTT AFB     CLEAR     42  33  70 W8        30.00R
$$


USA.gov is the U.S. government's official web portal to all federal, state and local government web resources and services.